This is the latest recevied weather packets stored in our database for station/object NO9B. If no packets are shown the sender has not sent any weather packets the latest 10 day(s).
| Time | Temp. | Humidity | Pressure | Rain* | Wind** | Luminosity | Snow |
|---|---|---|---|---|---|---|---|
| 1788043952 | 22.22° C | 90% | 1017.4 hPa | 0 mm | - | 50 W/m² | - |
| 1788043648 | 22.22° C | 91% | 1017.5 hPa | 0.51 mm | - | 50 W/m² | - |
| 1788043343 | 22.22° C | 93% | 1017.3 hPa | 1.78 mm | - | 29 W/m² | - |
| 1788043042 | 22.22° C | 93% | 1017.6 hPa | 0 mm | - | 25 W/m² | - |
| 1788042738 | 22.22° C | 93% | 1017.6 hPa | 0 mm | - | 26 W/m² | - |
| 1788042436 | 22.22° C | 93% | 1017.5 hPa | 0 mm | - | 24 W/m² | - |
| 1788042132 | 22.22° C | 93% | 1017.6 hPa | 0.51 mm | - | 17 W/m² | - |
| 1788041827 | 22.22° C | 93% | 1017.6 hPa | 3.05 mm | - | 21 W/m² | - |
| 1788041522 | 22.22° C | 93% | 1017.6 hPa | 4.32 mm | - | 11 W/m² | - |
| 1788041217 | 22.22° C | 92% | 1017.8 hPa | 4.83 mm | - | 14 W/m² | - |
| 1788040916 | 22.22° C | 92% | 1018.2 hPa | 4.32 mm | - | 8 W/m² | - |
| 1788040614 | 22.22° C | 92% | 1018.4 hPa | 8.38 mm | - | 11 W/m² | - |
| 1788040310 | 22.78° C | 90% | 1018.6 hPa | 7.87 mm | - | 6 W/m² | - |
| 1788040010 | 22.78° C | 90% | 1018.5 hPa | 3.56 mm | - | 12 W/m² | - |
| 1788039705 | 22.78° C | 90% | 1018.5 hPa | 1.78 mm | - | 20 W/m² | - |
| 1788039400 | 22.78° C | 90% | 1018.4 hPa | 1.78 mm | - | 23 W/m² | - |
| 1788039096 | 22.78° C | 88% | 1018.7 hPa | 0.51 mm | - | 18 W/m² | - |
| 1788038791 | 22.78° C | 87% | 1018.8 hPa | 0.51 mm | - | 22 W/m² | - |
| 1788038490 | 22.78° C | 86% | 1019 hPa | 0.51 mm | - | 22 W/m² | - |
| 1788038190 | 23.33° C | 85% | 1019.1 hPa | 0.51 mm | - | 28 W/m² | - |
| 1788037890 | 23.33° C | 85% | 1019 hPa | 0.51 mm | - | 19 W/m² | - |
| 1788037586 | 23.33° C | 84% | 1019.2 hPa | 1.27 mm | - | 13 W/m² | - |
| 1788037281 | 23.33° C | 82% | 1019.4 hPa | 0.51 mm | - | 14 W/m² | - |
| 1788036980 | 23.89° C | 81% | 1019.4 hPa | 0 mm | - | 22 W/m² | - |
| 1788036677 | 23.89° C | 80% | 1019.6 hPa | 0 mm | - | 23 W/m² | - |
* Rain latest hour (hover to see other rain measurements)
** Current wind speed in m/s (hover to see current wind gust speed)